Location: Lake Arresoe
(56.0000°N, 12.5000°E)
Time: 06:39:52
(UTC+02:00)

Cosmos 1674 - Pass Details

Date: 27 July 2021
Orbit: 491 x 516 km, 82.5° (Epoch: 19 September)

Event Time Altitude Azimuth Distance (km) Brightness Sun altitude
Rises 02:09:42 0° 0° (N) 2,653 8.0 -14.0°
Reaches altitude 10° 02:13:34 10° 40° (NE) 1,761 6.5 -13.8°
Maximum altitude 02:14:31 11° 54° (NE) 1,715 6.1 -13.8°
Drops below altitude 10° 02:15:27 10° 68° (ENE) 1,758 5.9 -13.8°
Sets 02:19:18 0° 108° (ESE) 2,638 6.3 -13.6°
